Find Starlink 11562

NORAD ID: 62918 Int'l Des: 2025-027 Owner: SPXS Country: US Constellation: starlink operational
又名: STARLINK-11562 [DTC] celestrak
LEOCIRCULAR

当前视图

正在加载3D地球...

About Starlink 11562

Starlink 11562 (NORAD 62918) is a starlink constellation satellite (v2 mini d2c) launched Feb 8, 2025 by SPXS of US. It operates in LEO, CIRCULAR orbit with a mass of 960.00 kg.

即将过境

Passes for default location (London). Set your location on the main map for personalized predictions.

高度历史

Loading altitude history...

两行轨道根数

1 62918U 25027M 26263.94994011 .00144534 00000-0 11095-2 0 9997
2 62918 43.0011 250.5052 0001820 259.2348 100.8315 15.70859942 93909
Epoch: Sep 20, 2026 • Age: 6 hours

当前状态

高度 356.4 km
远地点 / 近地点 N/A
速度 7.70 km/s
星下点 20.24°N, 163.47°W
发射日期 Feb 8, 2025
运行时间 1.6 years
类型 internet

技术详情

分类 Payload
质量 960.00 kg
干质量 910.00 kg
长度 0.30 m
跨度 29.00 m
形状 ? Box + pan
制造商 SPXS
平台类型 Starlink V2MD
阶段状态 In Orbit
所有者/国家 SPXS/US

Most Searched